Temperature
15 16 16 15 15 14 13 14 14 14 16 17 17 17 18 18 16 14 12 10 8 6 4 3 1 1 1 1 1 0 -0 -1 -2 -2 -3 -3 -4 -4 -5 -6 -7 -8 -9 -9
13 15 14 13 13 14 13 14 14 14 15 16 17 18 17 16 16 14 13 11 9 7 5 3 2 1 1 1 1 0 -0 -1 -2 -2 -3 -3 -4 -4 -5 -5 -7 -8 -8 -9
12 14 13 12 14 13 12 13 13 13 14 15 16 16 16 16 15 14 14 12 10 8 6 4 3 2 2 1 1 0 -0 -1 -2 -2 -2 -3 -4 -4 -5 -5 -6 -7 -8 -9
10 13 11 15 16 15 14 13 13 13 13 14 15 16 16 16 16 15 14 13 11 9 7 5 3 2 2 1 1 0 -1 -1 -2 -2 -2 -3 -3 -4 -4 -5 -6 -7 -8 -9
10 10 12 15 15 14 13 12 13 13 13 14 16 14 15 17 17 16 15 13 12 10 8 5 3 3 2 1 1 0 -0 -1 -2 -2 -2 -3 -3 -4 -4 -5 -6 -7 -8 -9
9 9 10 14 14 14 13 12 15 14 13 15 14 10 13 17 16 15 14 13 11 10 7 5 4 3 2 1 1 0 -0 -1 -2 -2 -2 -3 -3 -4 -4 -5 -6 -6 -7 -8
8 8 10 14 11 12 13 14 18 18 17 16 13 13 16 16 15 14 13 12 11 9 8 6 5 4 3 2 1 1 -0 -1 -2 -2 -2 -3 -3 -4 -4 -5 -5 -6 -7 -8
8 8 10 12 10 11 14 17 18 18 18 17 17 17 16 16 15 14 12 11 10 8 7 6 5 4 3 2 2 0 -1 -1 -2 -2 -2 -3 -3 -4 -4 -5 -5 -6 -7 -7
10 12 15 13 14 16 16 16 17 17 17 17 16 16 16 16 15 14 12 11 9 8 7 6 5 4 3 2 1 0 -1 -1 -2 -2 -3 -3 -3 -4 -4 -5 -5 -6 -7 -8
11 12 14 15 15 16 16 16 17 17 17 16 16 16 16 16 15 14 12 11 9 7 6 6 5 4 3 2 1 0 -0 -1 -2 -2 -3 -3 -3 -4 -4 -5 -6 -6 -7 -7
10 12 14 15 16 17 17 17 17 17 17 16 16 15 15 15 14 13 12 10 9 7 7 6 5 4 3 2 1 0 -0 -1 -2 -2 -3 -3 -3 -4 -4 -5 -6 -6 -7 -8
13 14 13 15 16 17 16 16 16 16 16 15 15 15 14 14 13 13 12 10 9 8 6 6 5 4 3 2 1 0 -0 -1 -2 -2 -3 -3 -3 -4 -4 -5 -6 -6 -7 -8
14 15 15 15 15 15 15 15 15 15 15 14 14 14 13 13 13 12 11 10 9 8 7 5 4 3 3 2 1 0 -0 -1 -1 -2 -3 -3 -3 -4 -4 -5 -5 -6 -7 -8
14 14 14 14 14 14 14 14 14 14 13 13 13 13 12 12 12 11 11 10 9 7 6 4 3 3 3 2 1 1 -0 -1 -1 -2 -2 -3 -3 -4 -4 -5 -5 -6 -7 -7
12 13 13 13 13 13 13 13 13 12 12 12 12 11 11 11 11 11 10 10 8 6 5 4 3 2 2 2 1 1 -0 -1 -1 -2 -2 -3 -3 -4 -4 -5 -5 -6 -6 -7
11 12 12 12 12 12 12 11 11 11 11 10 10 10 10 10 10 10 9 9 7 7 6 4 3 3 2 2 1 1 -0 -1 -1 -2 -2 -3 -3 -4 -4 -5 -5 -6 -6 -7
10 10 10 10 9 9 9 9 9 9 9 9 9 9 9 9 9 9 8 8 7 6 5 4 3 2 2 2 1 1 0 -1 -1 -2 -2 -3 -3 -4 -4 -5 -5 -6 -6 -7
8 8 8 8 8 8 8 8 8 8 8 8 8 8 8 8 8 8 7 6 5 4 3 2 1 0 1 1 1 1 0 -1 -1 -2 -2 -3 -3 -4 -4 -5 -5 -6 -6 -7
7 7 7 7 7 6 6 6 6 7 7 7 7 7 7 7 7 6 5 4 4 3 3 1 -0 -1 -0 1 1 0 0 -1 -1 -2 -2 -3 -4 -4 -4 -5 -5 -6 -6 -7
6 6 6 6 6 6 6 6 5 6 6 6 6 6 7 7 6 5 4 4 4 3 2 1 -1 -2 -1 -0 -0 -0 -0 -0 -1 -2 -2 -3 -3 -4 -4 -5 -5 -6 -6 -7
5 5 5 5 5 5 5 5 5 5 5 5 5 5 6 6 5 5 4 3 3 1 0 -1 -2 -2 -2 -1 -1 -1 -0 -1 -1 -1 -2 -3 -3 -4 -4 -5 -5 -6 -6 -7
4 4 4 4 4 4 4 4 4 4 4 4 4 4 5 5 5 4 4 3 2 0 -1 -2 -3 -3 -2 -2 -2 -1 -1 -1 -1 -1 -2 -2 -3 -4 -4 -4 -5 -6 -6 -7
4 3 3 3 3 3 2 3 3 3 3 3 3 3 4 4 3 3 3 2 0 -1 -2 -3 -3 -4 -3 -3 -2 -1 -1 -1 -1 -1 -1 -2 -3 -3 -4 -4 -5 -5 -6 -7
3 3 2 2 2 2 1 2 2 2 2 2 3 3 3 3 3 3 2 1 -1 -2 -3 -4 -4 -4 -5 -4 -3 -2 -1 -1 -1 -1 -1 -2 -3 -3 -4 -4 -5 -5 -6 -7
2 1 1 1 1 1 1 1 1 1 1 2 2 3 3 2 2 2 1 -0 -1 -3 -4 -4 -5 -5 -6 -5 -3 -2 -1 -1 -0 -1 -1 -2 -2 -3 -3 -4 -5 -5 -6 -6
1 0 0 0 0 0 0 0 0 1 1 1 1 2 2 2 1 1 0 -1 -2 -3 -4 -5 -5 -6 -6 -5 -3 -2 -1 -1 -1 -1 -1 -2 -2 -3 -3 -4 -5 -5 -6 -6
-0 -0 -1 -1 -0 -0 -0 -0 -0 -0 0 0 0 1 1 1 1 0 -0 -1 -2 -4 -5 -5 -5 -6 -6 -5 -4 -3 -2 -1 -1 -1 -1 -2 -2 -3 -3 -4 -4 -5 -6 -6
Wind_Speed
10 10 7 9 11 12 16 14 11 12 14 15 9 8 7 3 6 9 10 12 14 14 13 13 13 12 11 10 9 9 8 7 6 5 5 6 7 8 8 8 10 9 9 9
7 9 8 10 15 17 18 18 20 19 20 17 12 9 6 6 7 10 11 14 15 15 15 15 15 13 11 10 10 9 8 7 5 5 6 7 7 8 9 9 9 9 9 9
6 2 5 11 15 16 10 12 11 18 16 10 9 8 8 8 9 11 12 13 15 17 16 15 15 13 13 11 9 9 8 7 6 6 6 7 8 9 9 9 9 9 8 9
4 4 11 11 4 6 12 13 14 14 13 10 11 8 8 9 11 12 11 12 14 15 15 13 12 12 12 11 10 9 8 8 7 7 7 7 8 9 9 9 8 8 9 9
3 6 10 12 8 6 8 9 12 18 18 17 11 7 9 12 13 13 11 11 12 13 13 12 13 14 13 11 10 9 9 9 8 8 8 8 8 9 9 8 8 8 8 9
5 6 9 11 2 2 3 8 10 13 15 13 3 4 9 6 6 9 8 8 10 12 12 13 14 15 15 13 12 12 12 10 9 8 8 8 9 8 7 7 8 7 8 8
8 9 12 10 5 6 5 9 6 10 12 10 9 12 8 6 7 8 8 9 11 12 13 14 16 16 15 14 15 13 10 9 9 8 8 8 7 6 7 7 7 7 8 8
8 9 13 8 9 11 12 5 4 7 9 10 11 13 11 10 10 10 9 10 11 12 12 13 16 17 16 17 14 11 10 10 9 8 7 6 6 7 6 6 6 6 7 8
14 14 7 11 12 10 5 7 8 7 9 9 11 13 13 11 11 11 11 11 11 12 12 13 17 18 18 15 13 13 11 10 8 8 7 6 6 6 5 4 4 5 5 7
9 13 12 10 11 12 13 15 15 14 13 12 13 15 15 12 11 11 12 12 12 13 15 16 17 17 15 13 14 14 12 10 8 8 7 6 5 5 4 4 4 4 5 6
10 9 9 13 14 17 18 16 16 16 15 15 15 16 16 13 12 11 12 12 13 16 18 18 17 17 14 14 16 14 12 10 9 8 6 5 5 5 5 5 5 5 4 4
17 11 10 12 9 11 12 14 15 15 16 14 13 16 15 13 12 11 12 13 14 17 17 17 18 18 16 16 17 15 13 11 9 7 6 5 4 4 7 6 9 9 8 8
22 18 17 19 19 17 15 16 16 15 16 16 14 13 13 13 11 10 11 15 19 20 18 17 18 19 18 17 18 17 13 12 9 8 7 6 5 4 4 4 6 7 8 9
16 17 19 18 18 18 17 16 16 15 14 13 13 12 11 11 10 11 14 17 17 16 17 17 19 20 19 19 18 17 14 14 12 8 7 6 6 5 4 3 3 4 5 8
18 18 19 18 18 17 14 13 14 14 13 13 11 11 11 12 13 15 13 12 13 16 17 18 20 20 19 20 20 18 15 11 10 8 8 7 6 5 4 4 4 4 3 4
15 15 15 16 16 15 14 13 13 13 12 12 12 12 13 13 14 12 10 12 15 19 20 20 21 19 20 21 19 16 14 18 15 10 9 7 6 6 5 4 3 3 3 3
12 11 11 12 12 12 11 11 11 11 12 13 14 14 13 11 11 11 11 13 16 17 18 19 18 17 20 21 19 15 13 15 20 12 9 8 7 7 6 5 4 4 4 4
6 7 8 9 9 10 11 11 11 12 13 14 14 13 12 11 13 14 11 10 12 14 15 15 14 17 20 20 18 14 14 13 12 11 10 9 8 7 6 6 5 5 4 3
9 9 9 10 10 10 10 11 11 11 12 12 12 13 13 13 13 11 8 10 14 17 14 15 24 21 19 23 21 13 14 14 13 11 10 13 11 7 7 6 6 5 4 3
8 8 9 9 10 9 11 11 11 11 12 12 13 14 15 14 12 10 9 13 14 10 11 16 20 17 19 22 24 14 16 16 15 13 11 10 10 9 8 7 6 5 4 3
9 9 10 10 11 12 12 12 13 14 13 12 13 14 16 15 12 9 9 12 9 9 13 22 18 16 18 20 24 14 15 15 15 13 13 12 10 10 9 8 7 6 5 4
9 10 12 12 13 13 12 12 13 14 14 13 13 13 14 14 12 10 11 10 7 14 13 13 13 20 24 24 16 15 16 15 14 13 12 12 11 10 9 9 8 7 6 5
11 12 13 13 14 15 14 13 14 14 14 14 14 14 14 13 10 10 11 6 6 15 13 12 19 28 31 21 15 16 16 16 15 14 13 12 11 11 10 10 8 7 6 5
13 13 13 13 13 14 16 16 14 13 13 14 13 13 12 11 10 8 8 9 12 15 11 16 27 30 31 16 15 15 15 15 14 13 12 11 10 10 9 9 8 7 7 7
13 13 13 13 14 14 15 15 14 14 13 12 12 11 9 8 9 8 6 7 12 14 10 18 27 30 22 13 15 15 15 14 14 13 13 12 12 11 10 9 9 8 7 6
13 13 13 14 14 14 13 12 13 12 11 12 11 9 8 7 8 7 6 7 10 13 10 10 15 21 16 14 15 15 14 15 15 14 13 12 12 12 10 10 11 9 8 7
14 13 12 13 12 11 11 11 12 13 11 12 13 10 8 7 6 7 7 6 7 8 8 10 11 14 14 14 13 13 13 13 13 13 13 12 12 11 11 12 10 8 8 7
Wind_Direction
270 279 249 241 237 210 213 219 228 245 250 260 267 291 300 273 193 191 186 189 192 192 189 186 185 186 185 183 176 175 184 206 227 249 274 283 284 284 284 283 288 283 286 291
275 257 252 265 253 238 232 233 242 258 271 270 280 277 269 261 230 215 209 201 198 194 191 190 189 186 181 179 172 168 183 203 220 246 262 270 278 282 282 282 280 280 282 287
270 233 327 269 247 225 217 218 211 237 247 270 270 258 255 260 251 233 222 206 199 198 197 193 188 180 178 173 161 165 183 202 220 237 256 266 276 281 281 282 281 282 282 282
276 311 254 248 253 231 219 234 220 240 262 276 271 285 278 261 252 247 228 209 200 196 193 185 173 167 162 158 163 174 190 204 216 228 246 259 267 274 278 278 280 281 282 282
238 257 271 278 251 204 213 264 228 232 251 260 272 321 286 255 235 231 223 204 194 187 180 171 164 160 156 162 170 181 197 207 213 221 237 251 261 268 273 279 284 284 285 286
209 228 249 257 182 98 125 278 243 209 231 248 214 292 276 248 213 219 206 184 175 169 166 165 162 156 162 174 182 196 202 206 209 215 228 244 256 267 277 283 284 290 293 293
221 233 257 261 144 123 183 248 216 197 217 224 204 227 243 211 215 213 200 182 168 167 173 171 162 162 175 184 197 199 192 196 205 213 226 241 255 268 279 285 292 299 302 302
195 215 251 209 152 190 223 272 238 223 225 228 235 250 252 237 228 213 201 185 175 175 176 167 166 172 185 196 195 182 183 190 200 213 228 240 250 265 274 287 301 306 310 311
201 220 250 176 204 228 275 286 275 268 263 253 256 262 262 253 236 217 204 194 183 179 175 173 176 183 192 193 177 175 180 189 199 212 222 230 241 258 274 288 294 302 310 314
240 248 257 242 240 255 259 259 264 266 268 264 260 264 266 260 243 221 205 195 185 179 185 188 187 193 195 179 171 172 180 188 197 206 217 228 237 240 248 265 283 296 305 310
254 264 280 265 246 248 255 258 262 263 259 255 255 262 262 260 246 224 208 195 190 195 198 196 190 195 191 176 170 174 180 187 193 199 205 221 233 234 242 230 239 268 262 278
259 255 253 265 261 254 257 263 264 267 272 265 251 258 262 257 245 223 206 195 197 202 202 196 192 194 189 177 173 174 182 188 191 191 198 206 221 256 274 260 268 283 288 296
263 269 267 272 275 275 272 273 273 271 271 275 271 259 257 256 247 222 206 200 204 205 202 195 192 194 188 179 176 179 183 183 185 187 191 196 200 215 256 285 288 293 295 304
275 281 278 275 274 275 274 275 278 280 279 275 275 270 260 256 247 225 218 212 205 200 199 197 195 195 187 180 179 182 181 184 183 184 186 188 192 201 213 240 280 292 302 310
269 268 272 277 278 281 283 285 289 290 291 289 280 272 264 257 251 241 228 205 194 197 201 200 199 195 183 181 181 181 180 182 181 177 182 185 186 191 206 228 247 269 288 310
280 281 283 286 289 292 296 297 296 297 299 298 293 282 270 260 256 249 221 194 195 205 204 203 203 191 180 180 181 180 183 184 179 179 181 182 184 190 202 214 233 258 275 277
288 294 297 301 305 311 314 313 308 305 306 303 297 292 284 273 265 253 231 209 208 211 206 204 199 184 179 180 179 179 178 183 182 181 182 182 184 189 194 197 213 238 252 265
351 347 343 339 337 332 326 321 315 310 302 294 293 292 285 271 263 258 239 214 211 215 210 201 189 181 179 179 179 176 174 177 179 179 180 182 185 186 187 192 207 227 243 267
2 354 345 339 332 323 314 308 303 297 294 297 300 297 288 274 264 259 234 207 212 221 211 192 191 184 181 182 178 175 173 173 176 179 179 188 190 185 185 191 202 212 221 234
338 332 330 324 320 313 306 304 305 306 309 312 309 303 297 288 277 262 235 225 225 217 189 188 190 185 181 184 181 177 175 174 175 177 179 183 184 185 188 192 195 199 207 219
321 319 320 318 315 313 311 314 314 309 304 303 301 297 294 291 281 259 244 248 231 195 186 192 190 185 182 184 183 180 177 175 175 177 179 182 184 185 186 187 188 193 197 206
315 315 314 311 310 308 307 306 301 298 296 295 294 293 294 292 284 265 246 245 222 194 189 193 189 186 184 184 184 181 179 176 175 176 179 180 182 184 185 183 185 190 190 194
306 304 302 300 298 296 295 292 289 288 287 287 288 288 286 284 278 270 272 241 207 204 196 193 191 189 187 184 184 182 180 178 177 178 180 180 181 182 181 181 183 182 181 188
297 294 290 288 289 291 291 288 283 280 278 279 277 272 273 282 282 259 250 237 216 213 202 195 194 192 189 185 182 182 181 179 177 177 177 177 177 176 176 176 176 177 180 183
289 288 287 287 288 287 285 286 286 284 282 282 277 270 261 256 263 270 251 228 223 219 202 199 197 194 189 183 183 183 181 179 177 174 175 176 177 177 176 174 175 175 178 182
288 287 284 279 279 282 284 284 284 283 282 284 286 278 267 257 258 261 250 230 224 219 199 190 193 195 187 183 183 182 179 178 178 177 176 176 175 174 175 175 172 175 176 177
285 284 285 285 281 276 276 276 279 280 277 278 283 281 268 260 256 253 246 234 224 212 193 187 188 188 183 181 181 180 178 176 174 174 175 174 175 176 176 172 173 172 169 170
Height
1539 1535 1535 1535 1533 1534 1536 1531 1531 1516 1506 1494 1491 1490 1490 1489 1489 1489 1488 1487 1486 1486 1487 1488 1490 1492 1494 1496 1498 1499 1500 1500 1499 1498 1496 1494 1491 1488 1484 1480 1476 1472 1467 1463
1541 1532 1532 1533 1526 1524 1523 1520 1514 1508 1500 1486 1488 1486 1485 1485 1485 1483 1482 1480 1480 1479 1480 1481 1482 1485 1488 1490 1492 1493 1494 1495 1494 1493 1492 1490 1487 1484 1480 1476 1472 1468 1464 1459
1546 1532 1533 1532 1511 1510 1511 1503 1503 1505 1493 1484 1484 1482 1482 1481 1479 1477 1475 1474 1472 1472 1472 1473 1475 1478 1481 1484 1486 1488 1489 1489 1489 1489 1487 1485 1483 1480 1476 1472 1468 1464 1460 1456
1547 1539 1544 1509 1495 1494 1496 1492 1492 1488 1484 1482 1480 1479 1477 1475 1473 1470 1469 1467 1465 1465 1465 1467 1469 1472 1475 1478 1480 1482 1483 1484 1484 1484 1483 1481 1479 1476 1472 1468 1464 1460 1456 1452
1547 1545 1526 1503 1492 1492 1494 1491 1481 1482 1479 1477 1475 1475 1471 1469 1466 1464 1462 1461 1459 1458 1459 1460 1462 1465 1468 1471 1474 1476 1477 1479 1479 1479 1478 1477 1475 1472 1468 1464 1460 1456 1452 1448
1545 1546 1533 1500 1490 1488 1492 1493 1472 1472 1472 1471 1473 1478 1467 1462 1460 1458 1456 1454 1452 1452 1452 1453 1455 1458 1461 1464 1467 1469 1471 1473 1474 1474 1473 1472 1470 1468 1465 1461 1457 1453 1449 1445
1541 1537 1516 1489 1488 1491 1498 1483 1466 1465 1465 1466 1467 1465 1459 1456 1454 1452 1450 1448 1446 1445 1444 1445 1448 1451 1454 1457 1459 1463 1466 1467 1468 1468 1468 1468 1466 1464 1461 1458 1454 1450 1446 1442
1530 1530 1512 1480 1485 1486 1474 1464 1463 1461 1461 1460 1458 1456 1453 1450 1448 1445 1443 1441 1439 1438 1437 1438 1440 1443 1446 1449 1453 1457 1459 1461 1462 1463 1463 1463 1462 1460 1458 1455 1451 1447 1443 1439
1501 1490 1474 1471 1469 1465 1464 1462 1460 1458 1456 1455 1452 1449 1447 1444 1441 1438 1436 1434 1432 1431 1431 1431 1432 1435 1438 1442 1446 1449 1452 1454 1456 1458 1458 1458 1458 1456 1454 1452 1448 1444 1440 1435
1483 1472 1469 1467 1465 1463 1462 1458 1455 1453 1451 1449 1446 1442 1439 1436 1433 1430 1428 1426 1424 1423 1422 1422 1424 1427 1431 1436 1439 1442 1445 1448 1450 1452 1453 1453 1453 1452 1450 1448 1445 1442 1438 1433
1474 1466 1465 1460 1458 1456 1453 1451 1448 1446 1444 1442 1439 1435 1432 1428 1425 1423 1420 1418 1416 1414 1413 1413 1416 1419 1424 1427 1431 1435 1438 1441 1444 1446 1447 1448 1448 1448 1447 1445 1442 1439 1435 1431
1463 1460 1460 1452 1451 1451 1448 1445 1442 1440 1435 1433 1432 1428 1424 1420 1417 1414 1412 1409 1406 1405 1404 1405 1407 1411 1415 1418 1423 1427 1430 1434 1437 1439 1441 1443 1443 1444 1443 1442 1439 1437 1433 1430
1454 1453 1451 1445 1442 1442 1440 1437 1434 1431 1428 1424 1422 1420 1416 1411 1408 1405 1402 1399 1396 1394 1394 1396 1397 1401 1405 1409 1414 1418 1422 1426 1430 1433 1435 1437 1438 1439 1439 1438 1436 1434 1431 1428
1449 1447 1441 1437 1434 1432 1431 1428 1425 1422 1419 1416 1413 1410 1407 1402 1398 1395 1392 1389 1387 1386 1385 1386 1388 1390 1395 1401 1406 1410 1415 1419 1422 1426 1429 1431 1433 1434 1434 1434 1433 1431 1429 1426
1440 1439 1433 1428 1425 1423 1422 1420 1416 1412 1410 1407 1405 1401 1397 1393 1389 1385 1382 1380 1377 1375 1375 1376 1377 1380 1386 1391 1397 1402 1407 1411 1415 1419 1423 1425 1428 1429 1430 1430 1429 1428 1426 1423
1431 1428 1425 1422 1418 1416 1414 1412 1409 1405 1403 1399 1396 1392 1388 1383 1378 1374 1371 1369 1366 1363 1363 1365 1366 1370 1376 1382 1388 1394 1399 1404 1408 1412 1416 1419 1422 1424 1425 1425 1425 1424 1423 1421
1423 1420 1418 1415 1413 1411 1409 1407 1404 1400 1396 1392 1388 1383 1379 1374 1369 1364 1361 1358 1356 1354 1355 1355 1358 1363 1367 1373 1379 1385 1391 1396 1401 1405 1409 1413 1416 1418 1420 1421 1421 1421 1420 1418
1418 1417 1415 1412 1409 1406 1404 1401 1398 1394 1390 1385 1380 1375 1370 1365 1360 1355 1353 1350 1347 1344 1344 1346 1351 1355 1358 1364 1371 1377 1383 1389 1393 1398 1402 1406 1410 1413 1415 1416 1417 1417 1416 1415
1414 1413 1411 1408 1406 1402 1399 1395 1391 1388 1383 1378 1373 1367 1362 1357 1352 1347 1344 1341 1337 1334 1335 1338 1342 1346 1350 1356 1363 1368 1375 1381 1386 1391 1396 1400 1404 1407 1410 1411 1413 1413 1413 1412
1412 1409 1407 1404 1401 1398 1394 1390 1386 1381 1377 1372 1366 1360 1354 1349 1344 1339 1335 1330 1327 1326 1328 1331 1334 1337 1342 1348 1355 1361 1367 1373 1379 1384 1389 1394 1397 1401 1404 1406 1408 1409 1409 1409
1408 1405 1402 1399 1395 1392 1389 1384 1379 1374 1369 1364 1359 1353 1346 1341 1337 1331 1326 1321 1318 1319 1320 1322 1324 1328 1333 1340 1347 1353 1359 1365 1371 1377 1382 1387 1391 1395 1398 1401 1403 1405 1405 1405
1404 1401 1397 1393 1389 1384 1381 1377 1372 1366 1360 1355 1351 1345 1339 1333 1328 1323 1317 1314 1311 1311 1312 1313 1315 1320 1325 1333 1339 1345 1352 1358 1364 1370 1375 1380 1385 1389 1392 1396 1398 1400 1401 1401
1397 1394 1390 1386 1381 1375 1370 1367 1363 1357 1352 1347 1342 1337 1332 1326 1320 1315 1309 1307 1305 1303 1303 1305 1308 1313 1318 1325 1331 1338 1345 1351 1357 1363 1369 1374 1379 1383 1387 1390 1393 1395 1397 1397
1389 1385 1381 1376 1372 1366 1359 1355 1352 1347 1342 1338 1333 1329 1324 1317 1312 1308 1304 1300 1298 1297 1296 1298 1302 1307 1313 1317 1323 1331 1338 1344 1351 1357 1363 1368 1373 1378 1382 1385 1388 1391 1392 1393
1380 1375 1371 1366 1361 1356 1350 1345 1341 1336 1332 1328 1323 1320 1316 1311 1305 1300 1297 1294 1292 1291 1291 1293 1297 1301 1306 1310 1317 1324 1331 1338 1345 1351 1357 1362 1367 1372 1376 1380 1383 1386 1388 1389
1370 1365 1360 1356 1351 1346 1341 1336 1331 1327 1323 1318 1314 1311 1307 1303 1298 1294 1290 1287 1286 1285 1285 1288 1291 1296 1300 1305 1311 1318 1326 1333 1340 1346 1352 1357 1362 1366 1371 1375 1378 1381 1383 1385
1358 1353 1349 1343 1339 1336 1332 1328 1323 1318 1315 1311 1306 1302 1299 1295 1291 1287 1284 1281 1279 1279 1280 1282 1286 1291 1295 1300 1306 1313 1321 1328 1335 1341 1346 1352 1356 1361 1366 1370 1373 1376 1379 1381